Weather History for Claxton, GA

Change the Weather History Date:

Friday, April 12, 2013

  Actual Average (KSAV) Record (KSAV)
Temperature  
Mean Temperature 72 °F 65 °F  
Max Temperature 84 °F 77 °F 88 °F (1965)
Min Temperature 60 °F 53 °F 35 °F (1989)
Degree Days  
Heating Degree Days 0 3  
Month to date heating degree days 43  
Since 1 July heating degree days 1770  
Cooling Degree Days 7 3  
Month to date cooling degree days 27  
Year to date cooling degree days 69  
Growing Degree Days 22 (Base 50)    
Moisture  
Dew Point 67 °F    
Average Humidity 79    
Maximum Humidity 100    
Minimum Humidity 44    
Precipitation  
Precipitation 0.00 in 0.11 in 2.49 in (2004)
Month to date precipitation 1.31  
Year to date precipitation 11.52  
Sea Level Pressure  
Sea Level Pressure 29.79 in    
Wind  
Wind Speed 6 mph (SW)    
Max Wind Speed 17 mph    
Max Gust Speed 31 mph    
Visibility 10 miles    
Events Rain , Thunderstorm    
T = Trace of Precipitation, MM = Missing Value Source: NWS Daily Summary

Daily Weather History Graph

Daily Weather History Graph

Search for Another Location

Airport:

Trip Planner

Search our weather history database for the weather conditions in past years. The results will help you decide how hot, cold, wet, or windy it might be!

Date:

Astronomy

Apr. 12, 2013 Rise Set
Actual Time 7:01 AM EDT 7:55 PM EDT
Civil Twilight 6:36 AM EDT 8:20 PM EDT
Nautical Twilight 6:07 AM EDT 8:49 PM EDT
Astronomical Twilight 5:36 AM EDT 9:20 PM EDT
Moon 8:18 AM EDT (4/12) 10:15 PM EDT (4/12)
Length of Visible Light 13h 43m
Length of Day
12h 53m
Waxing Crescent, 5% of the Moon is Illuminated
Apr 12
Waxing Crescent
Apr 18
First Quarter
Apr 25
Full
May 2
Last Quarter
May 9
New

Hourly Weather History & Observations

Time (EDT) Temp. Heat Index Dew Point Humidity Pressure Visibility Wind Dir Wind Speed Gust Speed Precip Events Conditions
12:15 AM 71.6 °F - 68.0 °F 88% 29.83 in 10.0 mi South 5.8 mph - N/A   Mostly Cloudy
12:35 AM 71.6 °F - 68.0 °F 88% 29.82 in 10.0 mi South 3.5 mph - N/A   Mostly Cloudy
12:55 AM 73.4 °F - 68.0 °F 83% 29.83 in 10.0 mi Calm Calm - N/A Thunderstorm Mostly Cloudy
1:15 AM 71.6 °F - 69.8 °F 94% 29.84 in 5.0 mi SSW 3.5 mph - N/A Rain , Thunderstorm Light Thunderstorms and Rain
1:35 AM 71.6 °F - 69.8 °F 94% 29.83 in 7.0 mi South 4.6 mph - N/A   Mostly Cloudy
1:55 AM 71.6 °F - 71.6 °F 100% 29.83 in 7.0 mi SSW 6.9 mph - N/A Rain , Thunderstorm Light Thunderstorms and Rain
2:15 AM 71.6 °F - 69.8 °F 94% 29.82 in 10.0 mi SSW 4.6 mph - N/A   Scattered Clouds
2:55 AM 71.6 °F - 71.6 °F 100% 29.78 in 7.0 mi South 8.1 mph - N/A   Clear
3:15 AM 71.6 °F - 71.6 °F 100% 29.74 in 10.0 mi South 12.7 mph 23.0 mph N/A   Scattered Clouds
3:35 AM 71.6 °F - 69.8 °F 94% 29.72 in 10.0 mi SSW 5.8 mph 31.1 mph N/A   Scattered Clouds
3:55 AM 71.6 °F - 68.0 °F 88% 29.74 in 10.0 mi SSW 8.1 mph - N/A   Scattered Clouds
4:15 AM 71.6 °F - 69.8 °F 94% 29.74 in 10.0 mi SW 4.6 mph - N/A   Clear
4:35 AM 71.6 °F - 69.8 °F 94% 29.76 in 10.0 mi SSW 6.9 mph - N/A   Clear
5:15 AM 71.6 °F - 69.8 °F 94% 29.76 in 10.0 mi Calm Calm - N/A   Mostly Cloudy
5:35 AM 71.6 °F - 69.8 °F 94% 29.77 in 10.0 mi Calm Calm - N/A   Overcast
5:55 AM 71.6 °F - 71.6 °F 100% 29.77 in 10.0 mi Calm Calm - N/A   Overcast
6:15 AM 71.6 °F - 71.6 °F 100% 29.77 in 10.0 mi Calm Calm - N/A   Overcast
6:35 AM 71.6 °F - 71.6 °F 100% 29.76 in 10.0 mi Calm Calm - N/A   Overcast
6:55 AM 71.6 °F - 71.6 °F 100% 29.77 in 7.0 mi Calm Calm - N/A   Mostly Cloudy
7:15 AM 71.6 °F - 71.6 °F 100% 29.78 in 7.0 mi Calm Calm - N/A   Overcast
7:35 AM 71.6 °F - 71.6 °F 100% 29.78 in 7.0 mi Calm Calm - N/A   Overcast
7:55 AM 71.6 °F - 71.6 °F 100% 29.78 in 7.0 mi Calm Calm - N/A   Mostly Cloudy
8:15 AM 71.6 °F - 71.6 °F 100% 29.79 in 7.0 mi South 3.5 mph - N/A   Mostly Cloudy
8:35 AM 71.6 °F - 71.6 °F 100% 29.79 in 10.0 mi South 3.5 mph - N/A   Mostly Cloudy
8:55 AM 73.4 °F - 71.6 °F 94% 29.79 in 10.0 mi SSW 4.6 mph - N/A   Mostly Cloudy
9:15 AM 73.4 °F - 69.8 °F 88% 29.79 in 10.0 mi South 6.9 mph - N/A   Mostly Cloudy
9:35 AM 75.2 °F - 69.8 °F 83% 29.79 in 10.0 mi South 6.9 mph - N/A   Scattered Clouds
9:55 AM 77.0 °F - 69.8 °F 78% 29.79 in 10.0 mi SSW 6.9 mph 16.1 mph N/A   Scattered Clouds
10:15 AM 77.0 °F - 69.8 °F 78% 29.80 in 10.0 mi SSW 10.4 mph - N/A   Mostly Cloudy
10:35 AM 78.8 °F - 69.8 °F 74% 29.79 in 10.0 mi SW 8.1 mph 23.0 mph N/A   Mostly Cloudy
10:55 AM 78.8 °F - 69.8 °F 74% 29.80 in 10.0 mi SW 10.4 mph - N/A   Overcast
11:15 AM 77.0 °F - 69.8 °F 78% 29.80 in 10.0 mi SSW 8.1 mph - N/A Rain Light Rain
11:35 AM 77.0 °F - 69.8 °F 78% 29.80 in 10.0 mi SSW 6.9 mph - N/A   Overcast
12:15 PM 82.4 °F 86.3 °F 69.8 °F 66% 29.79 in 10.0 mi SW 12.7 mph 17.3 mph N/A   Scattered Clouds
12:35 PM 82.4 °F 86.3 °F 69.8 °F 66% 29.78 in 10.0 mi SW 10.4 mph 24.2 mph N/A   Scattered Clouds
12:55 PM 80.6 °F 83.2 °F 68.0 °F 65% 29.78 in 7.0 mi SW 15.0 mph 31.1 mph N/A Rain Rain
1:15 PM 78.8 °F - 69.8 °F 74% 29.78 in 10.0 mi WSW 9.2 mph - N/A   Scattered Clouds
1:35 PM 82.4 °F 86.3 °F 69.8 °F 66% 29.77 in 10.0 mi WSW 10.4 mph 19.6 mph N/A   Clear
1:55 PM 84.2 °F 88.4 °F 69.8 °F 62% 29.77 in 10.0 mi WSW 17.3 mph 27.6 mph N/A   Scattered Clouds
2:15 PM 77.0 °F - 71.6 °F 83% 29.78 in 10.0 mi West 6.9 mph 18.4 mph N/A Rain Light Rain
2:35 PM 80.6 °F 83.9 °F 69.8 °F 70% 29.77 in 10.0 mi West 11.5 mph - N/A   Scattered Clouds
2:55 PM 82.4 °F 86.3 °F 69.8 °F 66% 29.77 in 10.0 mi West 11.5 mph 19.6 mph N/A   Scattered Clouds
3:15 PM 80.6 °F 83.2 °F 68.0 °F 65% 29.77 in 10.0 mi West 15.0 mph 23.0 mph N/A   Mostly Cloudy
3:35 PM 82.4 °F 85.4 °F 68.0 °F 62% 29.77 in 10.0 mi West 12.7 mph 21.9 mph N/A   Mostly Cloudy
3:55 PM 82.4 °F 84.6 °F 66.2 °F 58% 29.76 in 10.0 mi West 13.8 mph 24.2 mph N/A   Scattered Clouds
4:15 PM 82.4 °F 84.6 °F 66.2 °F 58% 29.76 in 10.0 mi WNW 10.4 mph - N/A   Scattered Clouds
4:35 PM 80.6 °F 82.7 °F 66.2 °F 61% 29.76 in 10.0 mi WNW 16.1 mph 20.7 mph N/A   Mostly Cloudy
4:55 PM 80.6 °F 82.3 °F 64.4 °F 58% 29.76 in 10.0 mi West 15.0 mph 20.7 mph N/A   Scattered Clouds
5:15 PM 80.6 °F 82.3 °F 64.4 °F 58% 29.77 in 10.0 mi West 8.1 mph 16.1 mph N/A   Scattered Clouds
5:35 PM 78.8 °F - 64.4 °F 61% 29.77 in 10.0 mi West 11.5 mph 17.3 mph N/A   Mostly Cloudy
5:55 PM 80.6 °F 82.3 °F 64.4 °F 58% 29.77 in 10.0 mi West 10.4 mph 16.1 mph N/A   Overcast
6:15 PM 80.6 °F 82.3 °F 64.4 °F 58% 29.78 in 10.0 mi WSW 8.1 mph - N/A   Scattered Clouds
6:35 PM 80.6 °F 82.3 °F 64.4 °F 58% 29.78 in 10.0 mi West 5.8 mph - N/A   Mostly Cloudy
6:55 PM 78.8 °F - 62.6 °F 57% 29.78 in 10.0 mi WSW 6.9 mph - N/A   Mostly Cloudy
7:15 PM 78.8 °F - 62.6 °F 57% 29.78 in 10.0 mi West 5.8 mph - N/A   Scattered Clouds
7:35 PM 78.8 °F - 60.8 °F 54% 29.79 in 10.0 mi West 6.9 mph - N/A   Scattered Clouds
7:55 PM 77.0 °F - 55.4 °F 47% 29.80 in 10.0 mi West 6.9 mph - N/A   Clear
8:15 PM 77.0 °F - 53.6 °F 44% 29.80 in 10.0 mi West 5.8 mph - N/A   Clear
8:35 PM 73.4 °F - 55.4 °F 53% 29.81 in 10.0 mi West 3.5 mph - N/A   Clear
8:55 PM 69.8 °F - 59.0 °F 68% 29.82 in 10.0 mi Calm Calm - N/A   Clear
9:15 PM 68.0 °F - 59.0 °F 73% 29.83 in 10.0 mi Calm Calm - N/A   Clear
9:35 PM 66.2 °F - 60.8 °F 83% 29.84 in 10.0 mi Calm Calm - N/A   Clear
9:55 PM 64.4 °F - 59.0 °F 83% 29.85 in 10.0 mi Calm Calm - N/A   Clear
10:15 PM 62.6 °F - 59.0 °F 88% 29.86 in 10.0 mi Calm Calm - N/A   Clear
10:35 PM 62.6 °F - 59.0 °F 88% 29.87 in 10.0 mi Calm Calm - N/A   Clear
10:55 PM 60.8 °F - 59.0 °F 94% 29.88 in 10.0 mi Calm Calm - N/A   Clear
11:15 PM 60.8 °F - 59.0 °F 94% 29.88 in 10.0 mi Calm Calm - N/A   Clear
11:35 PM 60.8 °F - 59.0 °F 94% 29.89 in 10.0 mi WNW 5.8 mph - N/A   Clear
11:55 PM 64.4 °F - 51.8 °F 64% 29.89 in 10.0 mi Calm Calm - N/A   Clear